QPF
0.00 0.01 0.01 0.00 0.00 0.00 0.00 0.00 0.00 0.00 0.00 0.01 0.01 0.01 0.02 0.03 0.04 0.03 0.00 0.01 0.01 0.00 0.00 0.00 0.00 0.00 0.00 0.00 0.00 0.00 0.00 0.00 0.00 0.00 0.01 0.00 0.00 0.00 0.00 0.00 0.00 0.00 0.00 0.00 0.01 0.02 0.01 0.00 0.00 0.01 0.00 0.00 0.00 0.00
0.00 0.01 0.01 0.00 0.00 0.00 0.00 0.00 0.00 0.00 0.00 0.01 0.01 0.02 0.03 0.03 0.03 0.04 0.00 0.00 0.01 0.01 0.00 0.00 0.00 0.00 0.00 0.00 0.00 0.00 0.00 0.00 0.00 0.00 0.00 0.00 0.00 0.00 0.00 0.00 0.00 0.00 0.00 0.01 0.00 0.00 0.00 0.00 0.00 0.00 0.00 0.00 0.00 0.00
0.00 0.00 0.00 0.00 0.00 0.00 0.00 0.00 0.00 0.00 0.01 0.01 0.01 0.01 0.03 0.03 0.03 0.04 0.01 0.00 0.01 0.01 0.00 0.00 0.00 0.00 0.00 0.00 0.00 0.00 0.00 0.00 0.00 0.00 0.00 0.01 0.00 0.00 0.01 0.00 0.01 0.00 0.00 0.01 0.00 0.00 0.00 0.00 0.00 0.00 0.00 0.00 0.00 0.00
0.00 0.00 0.00 0.00 0.00 0.00 0.00 0.00 0.00 0.00 0.00 0.01 0.00 0.01 0.01 0.01 0.02 0.02 0.00 0.00 0.00 0.00 0.00 0.00 0.00 0.00 0.00 0.00 0.00 0.00 0.00 0.00 0.00 0.00 0.01 0.01 0.00 0.00 0.00 0.01 0.00 0.00 0.00 0.00 0.00 0.00 0.00 0.00 0.00 0.00 0.00 0.00 0.00 0.00
0.00 0.00 0.00 0.00 0.00 0.00 0.00 0.00 0.00 0.00 0.00 0.00 0.01 0.01 0.01 0.01 0.01 0.00 0.00 0.00 0.00 0.00 0.00 0.00 0.00 0.00 0.00 0.00 0.00 0.00 0.00 0.00 0.00 0.00 0.01 0.00 0.00 0.00 0.00 0.00 0.00 0.00 0.00 0.00 0.00 0.00 0.00 0.00 0.00 0.00 0.00 0.00 0.00 0.00
0.00 0.00 0.00 0.00 0.00 0.00 0.00 0.00 0.00 0.00 0.00 0.00 0.00 0.00 0.00 0.01 0.00 0.00 0.00 0.00 0.00 0.00 0.00 0.00 0.00 0.00 0.00 0.00 0.00 0.00 0.00 0.00 0.00 0.00 0.00 0.00 0.00 0.01 0.01 0.01 0.00 0.00 0.00 0.00 0.00 0.00 0.00 0.00 0.00 0.00 0.00 0.00 0.00 0.00
0.00 0.00 0.00 0.00 0.00 0.00 0.00 0.00 0.00 0.00 0.00 0.00 0.00 0.00 0.00 0.00 0.00 0.00 0.00 0.00 0.00 0.00 0.00 0.00 0.00 0.00 0.00 0.00 0.00 0.00 0.00 0.00 0.00 0.00 0.00 0.00 0.00 0.01 0.01 0.00 0.00 0.00 0.00 0.00 0.00 0.00 0.00 0.00 0.00 0.00 0.00 0.00 0.00 0.00
0.00 0.00 0.00 0.00 0.00 0.00 0.00 0.00 0.00 0.00 0.00 0.00 0.00 0.00 0.00 0.00 0.00 0.00 0.00 0.00 0.00 0.00 0.00 0.00 0.00 0.00 0.00 0.00 0.00 0.00 0.00 0.01 0.00 0.00 0.00 0.00 0.00 0.00 0.00 0.00 0.00 0.00 0.00 0.00 0.00 0.00 0.00 0.00 0.00 0.00 0.00 0.00 0.00 0.00
0.00 0.00 0.00 0.00 0.00 0.00 0.00 0.00 0.00 0.00 0.00 0.00 0.00 0.00 0.00 0.00 0.00 0.00 0.00 0.00 0.00 0.00 0.00 0.00 0.00 0.00 0.00 0.00 0.00 0.00 0.00 0.01 0.00 0.00 0.00 0.00 0.00 0.00 0.00 0.00 0.00 0.00 0.00 0.00 0.00 0.00 0.00 0.00 0.00 0.00 0.00 0.00 0.00 0.00
0.00 0.00 0.00 0.00 0.00 0.00 0.00 0.00 0.00 0.00 0.00 0.00 0.00 0.00 0.00 0.00 0.00 0.00 0.00 0.00 0.00 0.00 0.00 0.00 0.00 0.00 0.00 0.00 0.00 0.00 0.00 0.00 0.00 0.00 0.00 0.00 0.00 0.00 0.00 0.00 0.00 0.00 0.00 0.00 0.00 0.00 0.00 0.00 0.00 0.00 0.00 0.00 0.00 0.00
0.00 0.00 0.00 0.00 0.00 0.00 0.00 0.00 0.00 0.00 0.00 0.00 0.00 0.00 0.00 0.00 0.00 0.00 0.00 0.00 0.00 0.00 0.00 0.00 0.00 0.00 0.00 0.00 0.00 0.00 0.00 0.00 0.00 0.00 0.00 0.00 0.00 0.00 0.00 0.00 0.00 0.00 0.00 0.00 0.00 0.00 0.00 0.00 0.00 0.00 0.00 0.00 0.00 0.00
0.00 0.00 0.00 0.00 0.00 0.00 0.00 0.00 0.00 0.00 0.00 0.00 0.00 0.00 0.00 0.00 0.00 0.00 0.00 0.00 0.00 0.00 0.00 0.00 0.00 0.00 0.00 0.00 0.00 0.00 0.00 0.00 0.00 0.00 0.00 0.00 0.00 0.00 0.00 0.00 0.00 0.00 0.00 0.00 0.00 0.00 0.00 0.00 0.00 0.00 0.00 0.00 0.00 0.00
0.00 0.00 0.00 0.00 0.00 0.00 0.00 0.00 0.00 0.00 0.00 0.00 0.00 0.00 0.00 0.00 0.00 0.00 0.00 0.00 0.00 0.00 0.00 0.00 0.00 0.00 0.00 0.00 0.00 0.00 0.00 0.00 0.00 0.00 0.00 0.00 0.00 0.00 0.00 0.00 0.00 0.00 0.00 0.00 0.00 0.00 0.00 0.00 0.00 0.00 0.00 0.00 0.00 0.00
0.00 0.00 0.00 0.00 0.00 0.00 0.00 0.00 0.00 0.00 0.00 0.00 0.00 0.00 0.00 0.00 0.00 0.00 0.00 0.00 0.00 0.00 0.00 0.00 0.00 0.00 0.00 0.00 0.00 0.00 0.00 0.00 0.00 0.00 0.00 0.00 0.00 0.00 0.00 0.00 0.00 0.00 0.00 0.00 0.00 0.00 0.00 0.00 0.00 0.00 0.00 0.00 0.00 0.00
0.00 0.00 0.00 0.00 0.00 0.00 0.00 0.00 0.00 0.00 0.00 0.00 0.00 0.00 0.00 0.00 0.00 0.00 0.00 0.00 0.00 0.00 0.00 0.00 0.00 0.00 0.00 0.00 0.00 0.00 0.00 0.00 0.00 0.00 0.00 0.00 0.00 0.00 0.00 0.00 0.00 0.00 0.00 0.00 0.00 0.00 0.00 0.00 0.00 0.00 0.00 0.00 0.00 0.00
0.00 0.00 0.00 0.00 0.00 0.00 0.00 0.00 0.00 0.00 0.00 0.00 0.00 0.00 0.00 0.00 0.00 0.00 0.00 0.00 0.00 0.00 0.00 0.00 0.00 0.00 0.00 0.00 0.00 0.00 0.00 0.00 0.00 0.00 0.00 0.00 0.00 0.00 0.00 0.00 0.00 0.00 0.00 0.00 0.00 0.00 0.00 0.00 0.00 0.00 0.00 0.00 0.00 0.00
0.00 0.00 0.00 0.00 0.00 0.00 0.00 0.00 0.00 0.00 0.00 0.00 0.00 0.00 0.00 0.00 0.00 0.00 0.00 0.00 0.00 0.00 0.00 0.00 0.00 0.00 0.00 0.00 0.00 0.00 0.00 0.00 0.00 0.00 0.00 0.00 0.00 0.00 0.00 0.00 0.00 0.00 0.00 0.00 0.00 0.00 0.00 0.00 0.00 0.00 0.00 0.00 0.00 0.00
0.00 0.00 0.00 0.00 0.00 0.00 0.00 0.00 0.00 0.00 0.00 0.00 0.00 0.00 0.00 0.00 0.00 0.00 0.00 0.00 0.00 0.00 0.00 0.00 0.00 0.00 0.00 0.00 0.00 0.00 0.00 0.00 0.00 0.00 0.00 0.00 0.00 0.00 0.00 0.00 0.00 0.00 0.00 0.00 0.00 0.00 0.00 0.00 0.00 0.00 0.00 0.00 0.00 0.00
0.00 0.00 0.00 0.00 0.00 0.00 0.00 0.00 0.00 0.00 0.00 0.00 0.00 0.00 0.00 0.00 0.00 0.00 0.00 0.00 0.00 0.00 0.00 0.00 0.00 0.00 0.00 0.00 0.00 0.00 0.00 0.00 0.00 0.00 0.00 0.00 0.00 0.00 0.00 0.00 0.00 0.00 0.00 0.00 0.00 0.00 0.00 0.00 0.00 0.00 0.00 0.00 0.00 0.00
0.00 0.00 0.00 0.00 0.00 0.00 0.00 0.00 0.00 0.00 0.00 0.00 0.00 0.00 0.00 0.00 0.00 0.00 0.00 0.00 0.00 0.00 0.00 0.00 0.00 0.00 0.00 0.00 0.00 0.00 0.00 0.00 0.00 0.00 0.00 0.00 0.00 0.00 0.00 0.00 0.00 0.00 0.00 0.00 0.00 0.00 0.00 0.00 0.00 0.00 0.00 0.00 0.00 0.00
0.00 0.00 0.00 0.00 0.00 0.00 0.00 0.00 0.00 0.00 0.00 0.00 0.00 0.00 0.00 0.00 0.00 0.00 0.00 0.00 0.00 0.00 0.00 0.00 0.00 0.00 0.00 0.00 0.00 0.00 0.00 0.00 0.00 0.00 0.00 0.00 0.00 0.00 0.00 0.00 0.00 0.00 0.00 0.00 0.00 0.00 0.00 0.00 0.00 0.00 0.00 0.00 0.00 0.00
0.00 0.00 0.00 0.00 0.00 0.00 0.00 0.00 0.00 0.00 0.00 0.00 0.00 0.00 0.00 0.00 0.00 0.00 0.00 0.00 0.00 0.00 0.00 0.00 0.00 0.00 0.00 0.00 0.00 0.00 0.00 0.00 0.00 0.00 0.00 0.00 0.00 0.00 0.00 0.00 0.00 0.00 0.00 0.00 0.00 0.00 0.00 0.00 0.00 0.00 0.00 0.00 0.00 0.00
0.00 0.00 0.00 0.00 0.00 0.00 0.00 0.00 0.00 0.00 0.00 0.00 0.00 0.00 0.00 0.00 0.00 0.00 0.00 0.00 0.00 0.00 0.00 0.00 0.00 0.00 0.00 0.00 0.00 0.00 0.00 0.00 0.00 0.00 0.00 0.00 0.00 0.00 0.00 0.00 0.00 0.00 0.00 0.00 0.00 0.00 0.00 0.00 0.00 0.00 0.00 0.00 0.00 0.00
0.00 0.00 0.00 0.00 0.00 0.00 0.00 0.00 0.00 0.00 0.00 0.00 0.00 0.00 0.00 0.00 0.00 0.00 0.00 0.00 0.00 0.00 0.00 0.00 0.00 0.00 0.00 0.00 0.00 0.00 0.00 0.00 0.00 0.00 0.00 0.00 0.00 0.00 0.00 0.00 0.00 0.00 0.00 0.00 0.00 0.00 0.00 0.00 0.00 0.00 0.00 0.00 0.00 0.00
0.00 0.00 0.00 0.00 0.00 0.00 0.00 0.00 0.00 0.00 0.00 0.00 0.00 0.00 0.00 0.00 0.00 0.00 0.00 0.00 0.00 0.00 0.00 0.00 0.00 0.00 0.00 0.00 0.00 0.00 0.00 0.00 0.00 0.00 0.00 0.00 0.00 0.00 0.00 0.00 0.00 0.00 0.00 0.00 0.00 0.00 0.00 0.00 0.00 0.00 0.00 0.00 0.00 0.00
0.00 0.00 0.00 0.00 0.00 0.00 0.00 0.00 0.00 0.00 0.00 0.00 0.00 0.00 0.00 0.00 0.00 0.00 0.00 0.00 0.00 0.00 0.00 0.00 0.00 0.00 0.00 0.00 0.00 0.00 0.00 0.00 0.00 0.00 0.00 0.00 0.00 0.00 0.00 0.00 0.00 0.00 0.00 0.00 0.00 0.00 0.00 0.00 0.00 0.00 0.00 0.00 0.00 0.00
0.00 0.00 0.00 0.00 0.00 0.00 0.00 0.00 0.00 0.00 0.00 0.00 0.00 0.00 0.00 0.00 0.00 0.00 0.00 0.00 0.00 0.00 0.00 0.00 0.00 0.00 0.00 0.00 0.00 0.00 0.00 0.00 0.00 0.00 0.00 0.00 0.00 0.00 0.00 0.00 0.00 0.00 0.00 0.00 0.00 0.00 0.00 0.00 0.00 0.00 0.00 0.00 0.00 0.00
0.00 0.00 0.00 0.00 0.00 0.00 0.00 0.00 0.00 0.00 0.00 0.00 0.00 0.00 0.00 0.00 0.00 0.00 0.00 0.00 0.00 0.00 0.00 0.00 0.00 0.00 0.00 0.00 0.00 0.00 0.00 0.00 0.00 0.00 0.00 0.00 0.00 0.00 0.00 0.00 0.00 0.00 0.00 0.00 0.00 0.00 0.00 0.00 0.00 0.00 0.00 0.00 0.00 0.00
0.00 0.00 0.00 0.00 0.00 0.00 0.00 0.00 0.00 0.00 0.00 0.00 0.00 0.00 0.00 0.00 0.00 0.00 0.00 0.00 0.00 0.00 0.00 0.00 0.00 0.00 0.00 0.00 0.00 0.00 0.00 0.00 0.00 0.00 0.00 0.00 0.00 0.00 0.00 0.00 0.00 0.00 0.00 0.00 0.00 0.00 0.00 0.00 0.00 0.00 0.00 0.00 0.00 0.00
0.00 0.00 0.00 0.00 0.00 0.00 0.00 0.00 0.00 0.00 0.00 0.00 0.00 0.00 0.00 0.00 0.00 0.00 0.00 0.00 0.00 0.00 0.00 0.00 0.00 0.00 0.00 0.00 0.00 0.00 0.00 0.00 0.00 0.00 0.00 0.00 0.00 0.00 0.00 0.00 0.00 0.00 0.00 0.00 0.00 0.00 0.00 0.00 0.00 0.00 0.00 0.00 0.00 0.00
0.00 0.00 0.00 0.00 0.00 0.00 0.00 0.00 0.00 0.00 0.00 0.00 0.00 0.00 0.00 0.00 0.00 0.00 0.00 0.00 0.00 0.00 0.00 0.00 0.00 0.00 0.00 0.00 0.00 0.00 0.00 0.00 0.00 0.00 0.00 0.00 0.00 0.00 0.00 0.00 0.00 0.00 0.00 0.00 0.00 0.00 0.00 0.00 0.00 0.00 0.00 0.00 0.00 0.00
0.00 0.00 0.00 0.00 0.00 0.00 0.00 0.00 0.00 0.00 0.00 0.00 0.00 0.00 0.00 0.00 0.00 0.00 0.00 0.00 0.00 0.00 0.00 0.00 0.00 0.00 0.00 0.00 0.00 0.00 0.00 0.00 0.00 0.00 0.00 0.00 0.00 0.00 0.00 0.00 0.00 0.00 0.00 0.00 0.00 0.00 0.00 0.00 0.00 0.00 0.00 0.00 0.00 0.00
0.00 0.00 0.00 0.00 0.00 0.00 0.00 0.00 0.00 0.00 0.00 0.00 0.00 0.00 0.00 0.00 0.00 0.00 0.00 0.00 0.00 0.00 0.00 0.00 0.00 0.00 0.00 0.00 0.00 0.00 0.00 0.00 0.00 0.00 0.00 0.01 0.01 0.01 0.00 0.00 0.00 0.00 0.00 0.00 0.00 0.00 0.00 0.00 0.00 0.00 0.00 0.00 0.00 0.00
MSLP
1028.05 1027.06 1026.27 1025.51 1024.81 1024.28 1023.79 1023.08 1022.12 1021.31 1020.44 1019.52 1018.63 1017.66 1016.82 1016.06 1015.41 1014.96 1014.78 1014.70 1015.00 1013.85 1012.66 1011.85 1011.47 1011.32 1011.20 1011.21 1011.24 1010.96 1010.68 1010.08 1009.82 1009.91 1009.81 1009.76 1008.85 1008.13 1007.38 1005.98 1005.14 1004.77 1004.01 1002.21 1001.00 1001.27 1001.71 1001.59 1000.49 1001.45 1002.80 1000.47 999.14 997.84
1027.88 1027.18 1026.41 1025.62 1024.78 1023.99 1023.18 1022.36 1021.70 1020.71 1019.82 1018.84 1017.95 1017.05 1016.31 1015.47 1014.77 1014.31 1014.27 1014.01 1013.87 1013.91 1012.47 1011.63 1011.12 1010.57 1010.62 1010.58 1010.84 1010.93 1010.89 1010.90 1010.84 1010.81 1010.82 1010.57 1010.37 1009.27 1008.42 1007.46 1006.41 1006.30 1005.98 1005.29 1004.85 1004.42 1004.15 1004.27 1004.24 1004.50 1003.80 1002.63 1000.98 1000.37
1027.15 1026.43 1025.78 1025.12 1024.23 1023.53 1022.81 1022.23 1021.23 1020.24 1019.35 1018.31 1017.27 1016.35 1015.56 1014.83 1014.10 1013.77 1013.63 1013.60 1013.72 1013.27 1011.69 1011.28 1010.37 1009.27 1009.36 1009.51 1010.05 1010.62 1010.32 1010.28 1010.32 1010.34 1010.86 1010.82 1010.29 1009.58 1009.31 1008.40 1007.87 1007.29 1006.48 1006.25 1005.81 1005.65 1005.50 1005.05 1005.29 1005.42 1004.85 1004.30 1003.04 1002.01
1026.73 1026.02 1025.09 1024.22 1023.59 1022.96 1022.16 1021.38 1020.59 1019.75 1018.66 1017.73 1016.78 1015.86 1015.10 1014.08 1013.37 1013.10 1013.25 1013.38 1013.69 1013.43 1012.53 1010.97 1009.52 1009.44 1008.89 1008.80 1009.18 1009.61 1009.72 1009.82 1010.15 1010.46 1010.90 1010.93 1010.61 1009.68 1009.58 1009.20 1009.83 1011.22 1009.66 1009.38 1007.12 1007.13 1006.79 1005.61 1006.59 1006.65 1005.39 1005.04 1004.29 1003.04
1026.01 1025.38 1024.63 1023.83 1023.13 1022.38 1021.73 1020.96 1019.97 1018.97 1018.15 1017.20 1016.16 1015.50 1014.47 1013.61 1013.01 1012.95 1013.26 1013.28 1013.49 1013.98 1013.36 1011.69 1010.47 1009.49 1009.03 1008.78 1008.84 1009.06 1009.17 1009.32 1009.52 1009.94 1010.25 1010.37 1009.95 1009.94 1009.73 1010.28 1013.46 1015.03 1014.76 1013.49 1011.62 1010.92 1011.08 1009.07 1007.71 1007.54 1006.76 1005.84 1004.76 1004.32
1025.61 1025.00 1024.29 1023.45 1022.84 1022.11 1021.25 1020.42 1019.54 1018.40 1017.20 1016.37 1015.72 1014.71 1014.02 1013.35 1012.81 1013.01 1013.49 1013.67 1013.56 1013.61 1013.66 1013.00 1011.29 1010.20 1009.57 1008.93 1008.69 1008.41 1008.36 1008.75 1009.23 1009.21 1009.40 1009.38 1008.97 1009.60 1010.86 1013.09 1015.84 1016.49 1016.45 1016.06 1014.78 1013.49 1012.42 1010.74 1008.87 1008.20 1007.58 1006.63 1005.13 1004.78
1025.62 1024.89 1024.15 1023.44 1022.61 1021.72 1020.88 1019.93 1018.93 1017.86 1016.79 1015.92 1015.13 1014.17 1013.59 1012.97 1012.93 1013.16 1013.53 1013.42 1012.99 1013.32 1013.82 1013.64 1012.83 1010.98 1010.28 1009.53 1008.90 1008.48 1008.07 1008.34 1008.68 1008.71 1008.69 1009.20 1010.09 1010.27 1013.65 1016.59 1017.29 1017.23 1016.97 1016.00 1015.09 1014.33 1012.03 1010.53 1009.88 1008.56 1008.40 1007.14 1005.85 1005.65
1025.13 1024.44 1023.97 1023.29 1022.43 1021.56 1020.44 1019.39 1018.59 1017.66 1016.57 1015.39 1014.70 1014.00 1013.18 1012.91 1013.02 1013.33 1013.44 1013.28 1013.21 1013.33 1013.87 1014.35 1013.34 1012.51 1011.42 1010.81 1010.02 1008.63 1008.78 1008.20 1008.13 1008.59 1009.82 1011.73 1013.49 1015.17 1016.80 1018.72 1018.44 1017.68 1016.72 1015.88 1015.51 1014.77 1013.11 1010.88 1009.90 1008.92 1008.14 1006.95 1007.09 1007.52
1024.61 1024.06 1023.41 1022.78 1021.98 1021.14 1020.13 1019.09 1018.37 1017.28 1016.21 1014.93 1014.21 1013.67 1013.40 1013.79 1014.14 1013.94 1013.43 1013.05 1013.18 1014.01 1014.16 1014.67 1014.61 1013.82 1012.41 1011.93 1010.88 1009.81 1009.20 1008.95 1010.01 1011.54 1013.01 1014.55 1017.09 1018.83 1020.08 1019.48 1018.99 1018.51 1017.93 1016.70 1015.27 1013.87 1012.62 1011.55 1010.19 1009.10 1008.51 1008.76 1008.39 1008.95
1024.10 1023.59 1022.90 1022.29 1021.53 1020.71 1019.76 1018.90 1018.28 1017.22 1015.84 1014.66 1014.29 1014.21 1014.39 1014.54 1014.08 1013.84 1013.33 1013.50 1013.98 1014.45 1014.89 1015.56 1015.99 1015.56 1014.93 1013.79 1012.39 1011.51 1010.33 1010.12 1011.65 1013.74 1014.60 1016.83 1019.65 1020.92 1020.92 1020.56 1019.87 1019.01 1018.05 1016.86 1015.58 1014.40 1013.74 1012.88 1011.64 1010.86 1010.46 1009.97 1009.81 1010.04
1023.68 1023.09 1022.37 1021.75 1020.98 1020.13 1019.36 1018.68 1018.02 1017.14 1016.25 1016.05 1016.17 1015.68 1014.89 1014.22 1014.26 1014.71 1015.48 1016.08 1016.79 1017.31 1017.29 1017.42 1017.62 1017.41 1015.81 1015.40 1014.20 1012.72 1011.86 1012.05 1013.59 1015.12 1015.97 1018.75 1020.57 1021.21 1020.98 1020.61 1020.08 1019.34 1018.48 1017.58 1016.66 1015.67 1014.65 1013.79 1012.88 1012.16 1011.78 1011.48 1010.95 1011.20
1022.91 1022.50 1021.86 1021.09 1020.36 1019.71 1019.10 1018.38 1017.97 1017.91 1017.91 1017.41 1017.06 1016.40 1015.97 1015.73 1016.39 1017.34 1018.85 1019.13 1019.65 1020.21 1019.71 1019.45 1019.29 1018.68 1017.33 1015.92 1014.77 1013.45 1013.67 1014.29 1015.81 1016.42 1018.20 1020.68 1021.82 1021.80 1021.36 1020.83 1020.29 1019.71 1018.95 1018.18 1017.33 1016.39 1015.58 1014.66 1013.89 1013.50 1013.36 1012.79 1012.02 1013.05
1022.49 1021.91 1021.44 1020.72 1019.89 1019.22 1018.68 1018.09 1017.68 1017.31 1016.77 1016.77 1016.99 1017.31 1017.87 1018.67 1019.44 1020.69 1021.83 1021.76 1022.16 1021.78 1021.80 1021.45 1020.79 1019.90 1018.55 1017.19 1016.17 1016.13 1016.44 1017.28 1017.38 1019.02 1021.18 1022.38 1022.60 1022.21 1021.79 1021.30 1020.76 1020.18 1019.33 1018.65 1018.13 1017.45 1016.60 1015.98 1015.53 1014.93 1014.66 1014.39 1014.77 1014.91
1021.92 1021.37 1020.85 1020.43 1019.86 1019.30 1018.52 1017.59 1017.12 1016.96 1017.09 1018.16 1019.20 1019.61 1020.40 1021.27 1022.10 1022.76 1023.41 1023.60 1023.35 1023.27 1023.31 1022.98 1022.22 1021.33 1019.85 1018.89 1018.36 1018.50 1019.10 1019.26 1020.82 1022.14 1023.06 1023.19 1023.03 1022.69 1022.28 1021.88 1021.27 1020.61 1019.93 1019.30 1018.77 1018.27 1017.75 1017.27 1016.81 1016.30 1016.09 1016.36 1016.38 1016.02
1021.47 1020.69 1020.19 1019.93 1019.53 1019.09 1018.34 1017.50 1017.19 1017.25 1018.09 1019.36 1020.12 1021.64 1022.04 1022.30 1022.72 1023.37 1023.99 1024.19 1024.00 1023.93 1024.07 1023.77 1022.97 1022.36 1021.42 1020.91 1020.71 1020.53 1021.52 1022.96 1023.58 1024.07 1024.05 1023.82 1023.50 1023.09 1022.63 1022.22 1021.78 1021.26 1020.70 1020.18 1019.68 1019.17 1018.77 1018.27 1018.29 1018.32 1018.35 1018.02 1017.77 1017.27
1020.92 1020.22 1020.29 1019.87 1019.24 1018.88 1018.18 1017.64 1017.73 1017.96 1019.48 1020.81 1022.01 1022.37 1022.71 1023.21 1023.94 1024.31 1024.81 1025.13 1024.52 1024.35 1024.10 1024.07 1023.72 1023.26 1023.17 1023.19 1023.25 1023.87 1024.06 1024.74 1024.99 1024.82 1024.41 1024.07 1023.75 1023.42 1023.07 1022.65 1022.24 1021.80 1021.29 1020.82 1020.45 1020.21 1020.10 1019.97 1019.92 1020.10 1019.98 1019.63 1018.79 1017.87
1020.60 1020.57 1020.16 1019.86 1019.23 1018.76 1018.59 1018.40 1019.05 1020.59 1021.90 1022.64 1023.50 1023.47 1023.69 1024.08 1024.84 1025.30 1025.68 1025.47 1024.83 1024.81 1024.85 1024.58 1024.96 1025.04 1024.53 1024.99 1025.70 1025.91 1026.22 1026.04 1025.73 1025.14 1024.72 1024.40 1024.14 1023.75 1023.36 1023.04 1022.77 1022.46 1022.18 1021.95 1021.78 1021.53 1021.26 1021.06 1020.87 1020.54 1020.12 1019.80 1019.48 1019.69
1020.90 1020.53 1020.22 1019.87 1019.40 1019.31 1019.85 1020.76 1021.67 1023.01 1024.20 1024.29 1024.43 1024.67 1024.55 1024.90 1025.51 1025.82 1026.07 1025.85 1025.51 1025.28 1025.18 1025.43 1025.49 1026.14 1026.71 1026.83 1027.20 1027.28 1026.89 1026.50 1025.93 1025.42 1024.93 1024.58 1024.33 1023.99 1023.62 1023.34 1023.01 1022.74 1022.59 1022.42 1022.33 1022.25 1022.08 1021.89 1021.68 1021.54 1021.37 1021.11 1021.02 1021.05
1020.87 1020.51 1020.03 1019.94 1019.85 1020.31 1021.48 1022.76 1023.57 1025.25 1025.78 1025.62 1025.33 1025.33 1025.18 1025.54 1025.82 1026.17 1026.35 1025.97 1025.60 1025.49 1025.73 1026.39 1027.29 1027.95 1027.98 1027.98 1027.91 1027.66 1027.41 1027.01 1026.43 1025.56 1024.83 1024.68 1024.46 1024.18 1023.93 1023.62 1023.37 1023.14 1022.93 1022.74 1022.62 1022.47 1022.22 1021.90 1021.70 1021.44 1021.23 1021.03 1021.26 1021.30
1020.45 1020.41 1020.04 1019.96 1020.08 1021.34 1023.24 1024.55 1024.65 1025.91 1026.73 1026.61 1026.32 1026.42 1026.40 1026.48 1026.58 1026.83 1026.94 1026.66 1026.46 1026.84 1027.74 1028.50 1029.11 1029.11 1028.87 1028.63 1028.36 1028.07 1027.68 1027.28 1026.75 1025.85 1025.24 1024.86 1024.73 1024.47 1024.27 1024.01 1023.79 1023.60 1023.46 1023.20 1022.93 1022.70 1022.60 1022.45 1022.31 1022.17 1021.87 1021.73 1021.80 1021.67
1021.04 1020.94 1020.26 1020.95 1021.90 1023.16 1025.41 1026.44 1027.03 1027.11 1027.34 1027.46 1027.40 1027.45 1027.60 1027.47 1027.89 1028.20 1028.22 1027.77 1027.92 1029.30 1029.84 1029.94 1029.79 1029.47 1029.13 1028.80 1028.61 1028.37 1027.99 1027.65 1027.17 1026.56 1025.85 1025.25 1025.17 1024.92 1024.72 1024.49 1024.13 1024.01 1023.97 1023.92 1023.71 1023.50 1023.28 1023.15 1023.07 1022.85 1022.61 1022.47 1022.32 1022.14
1021.67 1021.03 1021.44 1022.04 1023.56 1025.15 1026.42 1027.39 1027.63 1027.55 1027.90 1028.35 1028.49 1028.70 1029.73 1029.96 1029.92 1029.37 1029.20 1029.65 1031.00 1031.03 1030.79 1030.59 1030.38 1029.99 1029.46 1029.08 1028.80 1028.70 1028.51 1028.02 1027.37 1026.88 1026.30 1026.00 1025.60 1025.39 1025.18 1025.13 1024.83 1024.66 1024.56 1024.52 1024.35 1024.16 1023.90 1023.56 1023.41 1023.30 1023.22 1023.16 1022.91 1022.74
1021.85 1022.13 1023.57 1024.41 1025.75 1026.98 1028.40 1027.69 1028.25 1028.78 1029.50 1029.70 1029.71 1030.39 1030.95 1030.73 1030.25 1030.00 1031.17 1031.69 1031.65 1031.25 1031.12 1031.06 1030.72 1030.15 1029.76 1029.21 1029.04 1028.88 1028.67 1028.40 1027.97 1027.49 1027.06 1026.71 1026.25 1026.05 1025.86 1025.76 1025.58 1025.35 1025.14 1024.95 1024.75 1024.53 1024.36 1023.91 1023.83 1023.77 1023.61 1023.44 1023.35 1023.29
1022.83 1024.82 1026.56 1027.38 1028.63 1029.48 1029.26 1029.64 1029.74 1030.06 1030.60 1031.26 1032.02 1032.13 1032.01 1031.53 1031.05 1031.57 1032.76 1032.66 1031.86 1031.47 1031.47 1031.28 1030.89 1030.50 1030.06 1029.72 1029.52 1029.19 1028.88 1028.63 1028.36 1027.95 1027.62 1027.23 1026.81 1026.49 1026.24 1026.01 1025.93 1025.81 1025.65 1025.36 1025.08 1024.89 1024.74 1024.61 1024.40 1024.38 1024.26 1024.19 1024.16 1024.30
1024.52 1028.44 1028.89 1029.72 1030.45 1030.69 1031.26 1031.57 1031.79 1031.85 1032.74 1033.35 1033.25 1033.19 1032.85 1032.38 1032.43 1033.13 1033.27 1032.74 1032.32 1031.95 1031.92 1031.63 1031.40 1031.11 1030.73 1030.16 1029.68 1029.29 1028.94 1028.80 1028.53 1028.18 1027.66 1027.37 1027.09 1026.74 1026.45 1026.12 1025.92 1025.86 1025.78 1025.65 1025.48 1025.29 1025.15 1025.00 1024.92 1024.85 1024.73 1024.54 1024.62 1024.79
1026.92 1030.08 1030.44 1030.96 1031.41 1031.60 1031.96 1032.57 1032.79 1033.16 1033.62 1033.93 1033.90 1033.65 1033.36 1033.47 1033.54 1033.72 1033.09 1032.88 1032.66 1032.38 1032.28 1032.08 1031.85 1031.39 1030.93 1030.58 1030.07 1029.47 1029.08 1028.84 1028.70 1028.29 1027.67 1027.33 1027.18 1027.03 1026.68 1026.37 1026.06 1025.77 1025.69 1025.62 1025.44 1025.28 1025.14 1025.03 1024.96 1024.95 1024.90 1024.84 1024.68 1024.91
1029.21 1030.74 1031.09 1031.14 1031.57 1032.07 1032.38 1032.57 1032.94 1033.41 1033.97 1034.34 1034.31 1034.09 1034.13 1034.07 1033.78 1033.34 1032.83 1032.82 1032.91 1032.70 1032.60 1032.45 1032.12 1031.71 1031.25 1030.70 1030.14 1029.64 1029.22 1028.97 1028.77 1028.26 1027.62 1027.21 1026.89 1026.71 1026.60 1026.32 1025.98 1025.78 1025.58 1025.41 1025.25 1025.13 1024.97 1024.77 1024.66 1024.62 1024.65 1024.62 1024.81 1025.00
1030.55 1031.33 1031.95 1032.37 1032.45 1032.85 1033.29 1033.65 1033.98 1034.05 1034.27 1034.01 1034.06 1034.27 1034.00 1033.71 1033.33 1032.93 1032.89 1032.84 1032.91 1032.92 1032.74 1032.40 1031.92 1031.59 1031.50 1031.09 1030.51 1029.94 1029.34 1028.88 1028.50 1027.89 1027.21 1026.74 1026.42 1026.26 1026.15 1026.00 1025.83 1025.49 1025.21 1025.27 1024.95 1024.61 1024.42 1024.28 1024.14 1024.07 1024.19 1024.41 1024.68 1024.72
1031.71 1032.10 1032.39 1033.11 1033.77 1034.06 1034.11 1034.16 1034.27 1034.17 1034.07 1034.11 1034.16 1034.08 1033.48 1033.07 1032.91 1032.73 1032.86 1032.87 1032.98 1033.25 1033.13 1032.61 1032.22 1031.96 1031.51 1031.01 1030.39 1029.90 1029.55 1029.19 1028.95 1028.58 1028.08 1027.51 1026.88 1026.51 1026.31 1026.15 1025.88 1025.53 1025.25 1024.93 1024.46 1023.96 1023.66 1023.53 1023.37 1023.24 1023.68 1024.10 1024.39 1024.47
1032.64 1032.70 1033.37 1033.96 1034.60 1034.87 1034.98 1034.86 1035.02 1034.86 1034.47 1034.35 1034.36 1034.14 1033.79 1033.29 1032.96 1032.79 1033.05 1033.20 1033.60 1033.74 1033.30 1033.07 1032.78 1032.41 1031.98 1031.41 1030.63 1029.89 1029.47 1029.15 1029.09 1028.99 1028.55 1027.90 1027.34 1026.73 1026.34 1025.94 1025.52 1025.09 1024.78 1024.51 1024.16 1023.79 1023.41 1023.21 1023.14 1023.40 1023.71 1024.20 1024.34 1024.49
1032.98 1033.36 1034.04 1034.75 1035.07 1035.40 1035.53 1035.49 1035.31 1035.15 1035.26 1035.44 1035.29 1035.19 1034.67 1034.00 1033.33 1033.14 1033.38 1033.60 1033.89 1033.63 1033.32 1033.16 1032.69 1032.15 1031.82 1031.31 1030.96 1030.33 1029.80 1029.30 1028.98 1028.63 1028.12 1027.34 1026.68 1026.11 1025.57 1025.09 1024.68 1024.36 1024.06 1023.78 1023.51 1023.28 1023.11 1022.99 1023.00 1023.09 1023.26 1023.48 1023.60 1023.64
1033.90 1034.69 1035.15 1035.56 1035.83 1035.89 1035.95 1036.07 1036.21 1036.20 1036.19 1036.05 1036.01 1035.51 1035.00 1034.59 1033.99 1033.61 1033.85 1034.15 1034.17 1033.98 1033.40 1033.18 1032.77 1032.05 1031.42 1031.09 1030.78 1030.53 1029.84 1029.35 1028.92 1028.25 1027.31 1026.45 1025.68 1024.86 1024.36 1023.96 1023.64 1023.32 1023.00 1022.74 1022.55 1022.48 1022.46 1022.46 1022.47 1022.44 1022.55 1022.63 1022.72 1022.84
1035.11 1035.63 1035.79 1036.06 1036.57 1036.62 1036.65 1036.75 1036.81 1036.78 1036.36 1036.33 1036.12 1035.98 1035.67 1035.18 1034.50 1033.85 1033.97 1034.31 1034.27 1033.91 1033.63 1033.13 1032.34 1031.66 1031.12 1030.76 1030.48 1030.20 1029.91 1029.35 1028.90 1027.38 1026.67 1025.43 1024.36 1023.67 1022.86 1022.55 1022.23 1022.04 1021.95 1021.82 1021.68 1021.62 1021.64 1021.68 1021.71 1021.68 1021.70 1021.78 1021.87 1021.99
Thickness
5455 5450 5444 5436 5428 5416 5403 5392 5384 5373 5366 5363 5359 5356 5353 5350 5343 5337 5327 5315 5301 5304 5316 5323 5325 5321 5318 5315 5303 5310 5309 5310 5306 5309 5330 5331 5349 5347 5346 5387 5396 5399 5406 5436 5458 5463 5473 5440 5463 5467 5443 5472 5499 5512
5447 5439 5433 5427 5419 5411 5402 5393 5380 5372 5367 5365 5361 5358 5356 5352 5347 5341 5331 5321 5309 5300 5315 5322 5323 5326 5323 5321 5316 5312 5311 5306 5304 5287 5293 5302 5320 5330 5341 5363 5376 5386 5384 5386 5400 5404 5408 5409 5417 5413 5420 5440 5464 5476
5448 5441 5433 5424 5417 5408 5399 5387 5378 5371 5366 5366 5362 5361 5359 5356 5352 5344 5336 5325 5313 5304 5319 5323 5326 5335 5332 5328 5320 5308 5308 5312 5310 5309 5298 5298 5321 5324 5337 5354 5361 5375 5376 5386 5393 5393 5386 5401 5396 5402 5407 5417 5428 5447
5444 5437 5433 5427 5417 5407 5398 5388 5378 5371 5368 5365 5364 5362 5360 5361 5357 5349 5339 5328 5315 5307 5312 5317 5334 5331 5335 5333 5327 5320 5318 5313 5310 5306 5302 5295 5299 5326 5330 5342 5346 5311 5337 5333 5386 5366 5371 5397 5378 5375 5394 5400 5410 5425
5445 5437 5431 5423 5415 5405 5395 5385 5376 5372 5368 5366 5365 5362 5363 5362 5359 5352 5340 5330 5319 5308 5297 5308 5322 5332 5331 5331 5330 5326 5324 5319 5316 5311 5306 5298 5309 5319 5317 5328 5275 5266 5272 5295 5320 5325 5319 5342 5361 5363 5374 5385 5401 5410
5441 5433 5425 5420 5411 5402 5394 5385 5377 5373 5370 5367 5363 5363 5362 5361 5359 5352 5336 5329 5320 5312 5306 5308 5313 5326 5328 5332 5334 5335 5331 5325 5318 5317 5316 5313 5324 5321 5294 5287 5254 5255 5259 5268 5277 5293 5302 5319 5343 5352 5356 5371 5390 5396
5431 5425 5419 5412 5407 5401 5393 5384 5377 5374 5371 5367 5363 5363 5360 5359 5354 5346 5330 5331 5325 5317 5308 5305 5292 5317 5324 5330 5332 5330 5332 5324 5324 5324 5325 5323 5310 5316 5257 5235 5244 5248 5250 5258 5270 5275 5303 5319 5321 5334 5339 5356 5372 5377
5426 5421 5413 5406 5401 5397 5391 5385 5376 5371 5368 5367 5362 5360 5359 5355 5348 5341 5336 5332 5326 5319 5308 5305 5296 5305 5317 5317 5315 5321 5323 5328 5330 5327 5307 5284 5268 5252 5238 5224 5229 5237 5245 5249 5252 5259 5277 5300 5314 5325 5335 5350 5351 5350
5422 5416 5410 5402 5398 5393 5388 5382 5374 5370 5367 5367 5362 5357 5352 5341 5334 5331 5333 5332 5327 5318 5306 5295 5303 5299 5306 5301 5304 5316 5326 5331 5306 5289 5275 5262 5234 5216 5211 5216 5219 5221 5225 5234 5245 5255 5268 5282 5301 5313 5323 5321 5330 5328
5418 5411 5407 5399 5394 5387 5383 5377 5367 5365 5364 5364 5358 5343 5327 5330 5330 5330 5329 5328 5321 5312 5305 5303 5285 5287 5277 5272 5282 5284 5296 5320 5293 5271 5261 5237 5211 5203 5200 5200 5203 5209 5215 5224 5234 5243 5247 5260 5274 5284 5292 5305 5309 5311
5414 5408 5403 5396 5391 5385 5379 5372 5363 5361 5356 5347 5333 5333 5328 5328 5324 5314 5289 5289 5277 5272 5275 5280 5263 5262 5273 5269 5265 5277 5293 5296 5270 5258 5253 5214 5196 5194 5194 5192 5192 5194 5200 5207 5215 5224 5233 5240 5251 5262 5272 5282 5291 5294
5411 5404 5399 5394 5388 5381 5375 5367 5358 5347 5333 5326 5321 5321 5316 5303 5288 5285 5244 5265 5259 5265 5260 5247 5250 5243 5253 5267 5278 5291 5282 5264 5254 5243 5220 5187 5190 5185 5186 5185 5184 5184 5187 5192 5200 5210 5218 5228 5238 5244 5251 5261 5275 5271
5406 5399 5393 5388 5383 5377 5370 5363 5354 5345 5340 5329 5315 5300 5288 5279 5272 5248 5240 5247 5247 5244 5235 5237 5241 5230 5239 5258 5273 5259 5250 5235 5235 5209 5192 5184 5180 5180 5180 5180 5179 5180 5182 5185 5188 5195 5203 5211 5217 5225 5230 5238 5241 5247
5402 5396 5390 5382 5376 5370 5365 5362 5353 5345 5331 5303 5288 5288 5265 5251 5240 5248 5243 5239 5235 5224 5227 5226 5220 5223 5237 5244 5238 5243 5227 5223 5189 5173 5175 5174 5176 5176 5178 5179 5180 5181 5183 5184 5185 5186 5190 5194 5199 5207 5212 5214 5221 5229
5399 5394 5388 5378 5370 5364 5359 5357 5348 5340 5318 5295 5283 5264 5257 5255 5241 5239 5225 5220 5218 5205 5206 5204 5216 5217 5213 5216 5204 5219 5201 5156 5173 5172 5170 5175 5176 5176 5177 5178 5179 5180 5182 5183 5184 5184 5186 5189 5185 5185 5187 5192 5199 5208
5396 5391 5380 5371 5365 5358 5355 5352 5341 5328 5302 5285 5273 5270 5262 5244 5227 5227 5206 5200 5203 5209 5208 5205 5195 5200 5203 5192 5196 5189 5187 5175 5170 5166 5174 5173 5173 5174 5174 5176 5176 5178 5180 5181 5182 5181 5178 5177 5175 5172 5172 5176 5187 5203
5388 5379 5374 5365 5359 5352 5347 5339 5325 5296 5278 5276 5271 5257 5252 5236 5220 5205 5200 5202 5204 5203 5204 5192 5186 5192 5188 5172 5163 5159 5154 5160 5164 5167 5168 5167 5166 5167 5168 5168 5169 5169 5169 5169 5168 5167 5168 5168 5170 5173 5177 5181 5186 5184
5377 5372 5365 5356 5351 5345 5332 5315 5298 5278 5265 5260 5255 5238 5237 5224 5214 5207 5199 5196 5194 5198 5192 5182 5180 5162 5160 5156 5156 5152 5153 5155 5158 5159 5160 5162 5159 5160 5163 5163 5164 5164 5163 5162 5161 5159 5158 5159 5161 5162 5164 5166 5167 5168
5370 5363 5356 5347 5340 5327 5311 5297 5282 5257 5250 5242 5234 5232 5231 5223 5212 5200 5193 5191 5186 5181 5175 5162 5151 5143 5154 5146 5143 5141 5140 5141 5143 5148 5153 5151 5150 5150 5151 5153 5154 5155 5155 5153 5154 5155 5157 5158 5159 5161 5163 5165 5162 5162
5361 5353 5348 5339 5332 5310 5293 5276 5267 5251 5235 5233 5227 5213 5219 5212 5201 5188 5180 5182 5171 5158 5152 5143 5138 5134 5131 5129 5129 5128 5128 5129 5129 5136 5140 5142 5139 5140 5140 5141 5141 5141 5142 5142 5145 5147 5145 5146 5147 5147 5150 5151 5149 5151
5350 5344 5339 5327 5311 5292 5264 5240 5239 5229 5223 5225 5205 5207 5201 5190 5174 5162 5155 5161 5151 5134 5126 5124 5121 5119 5117 5117 5116 5115 5115 5114 5115 5119 5123 5127 5124 5125 5125 5126 5128 5129 5129 5128 5129 5130 5132 5131 5131 5133 5134 5135 5135 5137
5337 5332 5322 5310 5290 5270 5254 5238 5232 5226 5219 5206 5197 5188 5166 5158 5148 5145 5140 5133 5107 5114 5110 5108 5106 5105 5105 5104 5102 5101 5098 5099 5104 5106 5108 5109 5111 5111 5111 5110 5112 5112 5113 5112 5113 5114 5115 5119 5119 5119 5119 5119 5122 5123
5326 5318 5299 5285 5281 5260 5244 5231 5224 5209 5210 5196 5177 5169 5155 5143 5146 5138 5112 5097 5105 5105 5100 5096 5094 5093 5093 5093 5090 5088 5086 5086 5087 5089 5090 5090 5094 5094 5094 5093 5093 5094 5095 5096 5098 5099 5100 5106 5105 5105 5106 5108 5108 5108
5313 5285 5268 5251 5238 5237 5216 5209 5199 5191 5179 5170 5146 5152 5142 5130 5129 5109 5096 5091 5100 5098 5090 5083 5082 5080 5080 5079 5075 5074 5077 5074 5073 5074 5074 5075 5077 5078 5079 5079 5078 5078 5080 5082 5084 5085 5085 5086 5089 5088 5088 5087 5088 5086
5297 5262 5247 5234 5209 5219 5194 5185 5171 5176 5157 5134 5136 5127 5120 5111 5097 5081 5089 5083 5079 5080 5075 5072 5070 5071 5068 5065 5067 5068 5067 5064 5063 5063 5065 5065 5064 5065 5066 5067 5066 5065 5067 5067 5068 5069 5070 5070 5070 5070 5072 5072 5074 5071
5266 5228 5238 5203 5203 5209 5183 5186 5160 5152 5134 5123 5114 5100 5089 5083 5081 5079 5081 5074 5073 5068 5067 5064 5060 5059 5058 5058 5057 5057 5056 5055 5053 5053 5056 5057 5055 5054 5055 5056 5058 5060 5058 5057 5058 5059 5059 5060 5059 5057 5059 5061 5069 5062
5255 5237 5215 5216 5203 5195 5187 5176 5163 5143 5122 5122 5097 5091 5077 5076 5071 5078 5073 5065 5061 5059 5055 5051 5049 5048 5047 5046 5046 5046 5045 5044 5042 5043 5046 5047 5048 5047 5047 5048 5049 5050 5050 5051 5051 5052 5053 5055 5055 5055 5056 5056 5054 5055
5224 5214 5220 5189 5183 5171 5160 5147 5133 5128 5112 5109 5101 5086 5079 5080 5080 5069 5060 5054 5050 5045 5041 5040 5038 5037 5033 5030 5030 5030 5030 5030 5031 5033 5036 5037 5038 5038 5038 5039 5039 5042 5044 5042 5044 5046 5048 5049 5051 5051 5053 5051 5049 5049
5214 5206 5196 5177 5158 5154 5144 5143 5131 5123 5113 5094 5088 5084 5075 5072 5063 5057 5053 5048 5040 5032 5030 5028 5025 5018 5016 5014 5014 5014 5014 5015 5012 5006 5006 5016 5021 5023 5023 5023 5025 5028 5029 5031 5036 5041 5043 5044 5046 5049 5044 5043 5042 5041
5204 5192 5184 5156 5165 5165 5140 5126 5111 5096 5093 5085 5077 5069 5065 5062 5054 5049 5043 5036 5029 5022 5018 5011 5008 5004 5004 5001 5003 4999 4999 4997 4997 4995 4993 4995 4998 5003 5006 5009 5012 5016 5019 5021 5024 5028 5032 5034 5035 5034 5034 5031 5031 5030
5194 5184 5175 5163 5155 5133 5119 5107 5094 5095 5074 5060 5052 5049 5048 5047 5045 5040 5033 5026 5017 5011 5003 5000 4996 4991 4987 4990 4988 4987 4984 4981 4980 4982 4983 4987 4989 4992 4995 4998 5002 5005 5008 5011 5014 5017 5020 5023 5023 5023 5025 5024 5024 5029
5188 5169 5166 5172 5145 5120 5105 5092 5078 5070 5056 5052 5046 5031 5033 5035 5039 5034 5022 5012 5004 4999 4996 4986 4984 4983 4981 4977 4974 4971 4973 4973 4972 4972 4973 4977 4980 4985 4989 4992 4994 4997 5001 5003 5006 5007 5008 5010 5011 5014 5014 5015 5017 5018
5157 5147 5134 5135 5128 5116 5099 5084 5072 5062 5051 5043 5040 5027 5019 5025 5031 5021 5012 5005 4997 4990 4983 4978 4975 4974 4972 4969 4966 4964 4962 4960 4960 4963 4965 4971 4976 4979 4984 4987 4991 4993 4994 4996 4998 4999 4999 5000 5001 5003 5006 5006 5007 5008